Wind_Speed
23 21 19 16 17 17 16 14 15 19 20 18 19 18 18 15 14 14 14 14 15 16 17 18 19 21 21 21 21 21 21 20 19 18 18 17 16 15 15 16 18 20 22 24
23 20 18 19 18 17 15 15 15 19 18 16 16 14 13 12 11 12 12 13 14 15 17 18 19 20 21 21 21 21 21 20 20 19 18 17 16 15 14 13 14 16 18 20
19 18 19 18 18 17 15 17 16 17 16 14 12 10 8 8 9 10 11 12 13 15 16 18 19 20 21 21 21 21 21 21 20 19 19 17 16 15 14 12 12 13 14 17
22 21 19 18 17 16 16 16 14 13 13 10 8 8 7 7 8 9 10 11 13 14 16 17 18 19 20 21 21 21 21 22 21 20 20 19 17 16 14 13 11 11 12 14
22 20 19 18 17 15 16 12 11 10 8 7 5 6 8 7 8 8 10 11 13 14 15 16 17 19 20 21 21 21 22 22 22 21 21 20 19 17 16 14 13 12 12 12
20 18 19 19 15 14 12 10 8 6 5 3 4 5 7 6 7 8 9 11 12 13 14 15 16 18 19 20 21 22 22 22 22 22 22 21 20 19 18 17 15 14 13 13
16 15 16 15 14 13 11 9 6 1 5 6 5 5 6 6 7 8 9 10 11 12 13 14 16 17 19 20 21 22 23 23 23 23 23 22 21 21 20 19 18 16 14 13
10 12 13 14 13 12 11 10 9 7 3 9 8 6 4 4 6 7 8 9 10 11 12 14 15 17 18 19 20 22 23 23 24 24 24 23 23 22 22 21 20 18 16 15
8 13 11 11 12 11 11 10 10 10 11 7 7 5 2 4 5 6 7 8 9 10 11 13 14 16 17 19 20 21 22 23 24 24 24 24 24 23 23 22 22 20 18 16
13 13 11 11 11 11 11 10 10 10 10 6 7 8 4 3 4 5 5 7 8 9 10 12 14 15 17 18 19 20 21 22 23 24 24 24 24 25 24 24 23 22 20 18
12 9 9 10 11 10 11 10 10 10 9 9 7 7 3 2 3 3 5 6 7 9 10 12 13 15 16 17 18 19 20 21 22 23 24 24 24 25 25 25 25 24 23 20
16 13 9 9 8 9 10 10 11 11 10 8 7 3 2 1 1 3 4 5 7 8 10 11 13 14 15 17 18 19 20 21 22 22 23 24 24 24 24 25 25 25 24 23
16 15 11 7 8 11 11 11 10 9 8 7 6 3 3 1 0 2 3 5 6 8 10 11 12 14 15 17 18 19 20 21 22 22 23 23 24 24 24 25 25 25 25 24
14 15 15 13 13 12 12 11 11 10 9 8 6 4 3 2 1 2 3 5 6 8 10 11 13 14 15 17 18 19 20 21 21 22 23 23 24 24 24 24 25 25 25 25
15 15 15 14 12 11 11 11 11 10 9 8 7 5 4 3 3 3 4 6 7 9 10 12 13 14 16 17 18 19 20 21 21 22 23 23 24 24 25 25 25 25 25 25
14 14 14 12 11 11 11 11 10 10 9 8 7 6 5 4 4 5 6 7 8 10 11 13 14 15 16 17 18 19 20 20 21 22 23 23 24 25 25 25 26 26 26 26
14 13 13 12 12 12 11 11 10 10 9 8 8 7 6 6 6 7 8 9 10 11 13 14 15 15 16 17 19 20 20 21 22 22 23 24 24 25 25 25 25 26 26 26
14 14 14 13 13 13 11 10 10 10 10 9 8 8 8 8 9 9 10 11 12 13 14 15 16 17 17 18 19 20 21 22 22 23 23 24 24 25 25 25 25 26 26 26
15 15 14 14 13 11 11 11 11 11 11 10 10 10 10 11 11 11 12 13 13 14 15 16 17 18 18 19 20 20 21 22 22 23 23 24 24 25 25 26 26 25 26 26
15 15 15 14 14 13 13 11 12 13 13 12 12 12 12 13 13 12 13 14 15 15 16 17 18 19 19 20 21 21 22 23 23 24 24 25 25 25 26 26 26 25 25 26
17 17 16 16 16 16 13 12 14 15 14 13 14 14 14 15 15 15 15 16 16 17 18 18 19 20 20 21 22 22 23 24 24 25 25 26 26 26 26 26 27 26 26 25
19 18 18 18 19 18 15 16 16 16 15 16 16 16 16 16 16 17 17 18 18 18 19 19 20 21 22 23 23 24 24 25 26 26 27 27 27 27 27 27 27 27 26 26
21 20 20 21 21 19 18 18 18 18 18 18 18 18 18 18 19 19 19 19 19 20 20 21 22 22 23 24 24 25 26 27 27 28 28 28 28 28 28 27 27 27 27 26
24 23 23 23 22 21 21 21 21 21 20 20 20 20 20 20 20 20 20 21 21 21 22 23 24 24 25 25 26 27 28 29 29 30 30 30 29 29 29 28 28 28 27 26
27 26 25 25 24 24 23 23 23 23 23 23 22 22 22 22 22 22 22 22 22 23 24 25 25 26 27 27 28 29 30 32 32 32 32 32 31 31 30 29 29 29 28 28
29 29 28 27 27 27 26 25 25 25 25 25 24 24 24 24 24 24 24 24 25 25 26 26 27 28 29 30 31 32 33 34 34 34 33 33 32 31 31 30 29 29 28 28
Wind_Direction
229 234 240 246 248 248 258 271 284 286 297 305 309 312 316 325 327 330 336 342 348 352 353 354 353 353 353 352 351 350 348 345 342 338 334 329 324 315 301 286 275 267 262 260
225 230 234 239 245 250 260 271 275 280 293 300 304 309 316 327 334 339 344 349 353 355 356 358 358 359 360 360 359 358 356 355 352 350 347 342 337 330 319 304 288 276 268 264
221 225 232 240 250 256 264 269 270 280 294 300 301 308 321 332 341 345 350 354 355 356 357 360 1 3 4 5 5 4 4 3 1 359 357 353 348 343 337 324 307 291 279 272
213 218 226 238 247 256 258 264 275 282 287 295 311 322 335 346 349 351 355 357 359 359 1 2 3 6 8 9 9 8 9 9 8 7 5 3 359 354 349 341 330 313 297 285
217 221 228 238 246 250 257 269 274 278 282 287 311 327 325 348 351 354 356 358 360 2 3 5 9 11 13 14 15 15 14 13 12 11 10 9 7 3 358 350 341 330 317 303
218 223 228 237 245 249 255 257 259 268 280 298 310 318 313 350 353 355 358 360 2 6 9 12 15 16 18 19 19 18 17 16 15 15 14 13 11 8 4 359 350 340 328 317
222 230 233 239 241 240 242 237 223 287 353 326 301 298 302 348 352 355 358 1 7 12 16 18 19 21 21 21 20 20 19 19 18 17 16 15 13 12 8 4 358 350 341 329
238 245 234 237 238 239 231 223 204 171 197 276 282 286 316 339 347 354 358 4 11 17 19 21 22 23 22 21 21 21 21 21 20 20 19 18 17 15 13 10 5 359 352 342
200 248 239 234 235 235 226 220 218 203 192 213 280 288 309 325 343 352 360 7 14 18 21 22 22 23 22 22 21 21 20 20 19 19 19 19 18 16 14 12 9 5 359 352
191 234 234 237 233 229 226 219 207 195 185 177 267 285 300 318 338 352 5 13 19 22 22 22 21 21 21 20 19 19 18 18 18 18 18 17 16 15 14 11 9 6 2 357
207 225 230 230 231 225 214 209 205 205 200 181 216 264 285 315 341 2 14 21 24 24 22 21 19 17 17 17 16 15 15 15 15 15 15 15 14 13 13 12 10 8 6 3
217 211 224 227 220 222 218 209 204 203 200 203 219 227 239 293 6 19 22 21 20 17 15 14 13 12 12 11 11 11 11 11 11 10 10 10 10 10 10 9 9 9 8 6
212 207 201 227 225 218 211 207 207 206 204 205 219 207 209 188 24 12 10 7 5 5 5 5 4 4 5 5 5 6 6 6 6 6 5 6 6 5 6 6 6 7 6 5
210 207 199 208 222 206 204 205 204 203 204 203 215 214 208 215 269 324 340 346 349 351 353 353 354 355 356 357 358 358 359 0 0 0 0 1 2 2 2 2 3 3 3 2
208 208 210 211 212 204 202 204 203 203 207 212 215 216 223 241 268 295 315 327 333 338 341 343 345 346 347 349 351 352 353 353 354 354 355 355 356 358 359 359 360 360 360 359
207 209 210 207 207 206 206 205 205 207 211 218 225 231 241 254 272 289 304 315 323 328 332 335 337 340 342 343 345 346 347 348 349 350 350 351 351 353 354 355 357 357 358 358
206 207 207 204 209 209 210 210 212 214 218 225 233 240 249 261 275 287 298 307 314 320 324 327 331 333 335 337 339 340 341 343 344 345 347 348 349 350 351 352 353 354 356 357
208 209 210 212 215 218 214 214 219 223 227 231 238 248 257 266 274 284 293 301 307 313 317 321 325 327 329 331 333 335 336 338 339 341 343 344 346 347 348 349 350 352 353 354
216 218 218 219 221 222 219 220 229 231 234 240 247 254 261 268 275 285 292 298 304 309 313 317 320 322 325 327 329 330 331 332 334 335 337 340 342 344 345 347 348 349 350 351
223 224 227 228 232 234 229 226 237 240 243 246 252 259 264 271 278 285 290 295 300 305 309 313 316 318 321 323 325 326 327 328 329 330 332 334 336 338 340 342 344 346 347 349
228 230 233 236 238 241 240 239 244 247 249 251 256 262 267 273 281 285 289 293 298 302 306 310 313 315 317 320 321 322 323 324 325 326 328 329 331 333 335 337 339 341 342 344
234 235 238 240 243 245 245 248 252 256 258 258 261 264 269 274 279 283 287 292 296 299 303 306 309 312 314 316 317 318 319 321 322 323 324 325 326 328 330 331 333 335 337 338
241 241 243 244 247 251 251 252 257 259 260 261 264 266 270 274 278 282 286 290 293 297 300 303 306 309 311 313 314 314 315 316 318 319 319 320 322 323 324 326 327 329 331 333
243 244 246 249 250 252 254 255 257 260 262 263 265 268 271 274 278 281 285 288 292 295 298 301 304 306 309 311 312 312 312 313 314 315 315 316 317 318 319 320 321 322 324 327
245 246 248 251 253 254 255 257 259 261 263 265 267 269 272 275 277 280 283 286 290 293 297 299 302 305 307 309 310 311 311 311 312 312 311 312 313 314 315 315 316 317 319 320
247 249 250 252 253 255 256 259 261 262 264 266 268 270 272 275 277 279 282 285 288 292 295 297 300 302 305 307 309 309 310 310 310 310 309 309 310 310 311 312 312 313 314 316
Height
5866 5870 5872 5875 5876 5876 5877 5877 5877 5876 5874 5874 5872 5871 5868 5866 5864 5862 5859 5857 5854 5851 5848 5845 5841 5837 5832 5828 5823 5819 5815 5811 5807 5803 5800 5796 5794 5791 5789 5788 5788 5788 5790 5791
5864 5867 5870 5871 5872 5873 5874 5875 5876 5874 5872 5872 5870 5869 5866 5864 5863 5861 5859 5856 5853 5851 5847 5844 5840 5836 5832 5827 5823 5818 5814 5810 5805 5802 5798 5795 5792 5789 5787 5785 5784 5784 5785 5786
5861 5865 5866 5868 5869 5870 5872 5872 5873 5872 5871 5870 5869 5867 5865 5864 5862 5861 5858 5856 5853 5851 5847 5844 5840 5836 5832 5827 5823 5818 5814 5810 5805 5801 5797 5794 5790 5788 5785 5783 5782 5781 5781 5781
5856 5860 5864 5866 5867 5868 5870 5869 5870 5870 5869 5867 5867 5865 5864 5863 5862 5860 5858 5856 5853 5851 5847 5844 5840 5836 5832 5828 5823 5819 5814 5810 5806 5802 5798 5794 5790 5787 5784 5782 5780 5779 5778 5778
5853 5858 5862 5863 5864 5866 5866 5868 5868 5867 5866 5866 5865 5864 5864 5862 5861 5860 5858 5856 5853 5851 5848 5844 5841 5837 5833 5828 5824 5819 5815 5811 5807 5802 5798 5794 5791 5787 5784 5781 5779 5777 5776 5775
5852 5856 5859 5860 5862 5864 5864 5865 5865 5865 5865 5865 5865 5865 5864 5862 5861 5859 5858 5856 5853 5851 5848 5845 5841 5837 5833 5829 5825 5821 5817 5812 5808 5803 5799 5795 5791 5788 5784 5781 5778 5776 5774 5772
5852 5854 5856 5858 5860 5861 5862 5863 5864 5864 5865 5865 5864 5864 5864 5862 5861 5859 5858 5856 5853 5851 5848 5845 5842 5838 5835 5831 5827 5822 5818 5813 5809 5805 5800 5796 5792 5789 5785 5781 5778 5775 5772 5770
5851 5853 5855 5856 5857 5858 5859 5861 5862 5863 5867 5866 5864 5863 5863 5862 5861 5859 5858 5856 5854 5851 5849 5846 5843 5839 5836 5832 5828 5824 5820 5815 5811 5806 5802 5798 5793 5789 5785 5781 5778 5774 5771 5768
5850 5851 5852 5854 5855 5856 5857 5858 5859 5861 5862 5863 5863 5862 5862 5861 5860 5859 5857 5856 5854 5852 5849 5847 5844 5840 5837 5833 5829 5825 5821 5817 5813 5808 5804 5799 5795 5791 5786 5782 5778 5774 5770 5767
5847 5848 5851 5852 5853 5854 5856 5856 5857 5859 5860 5862 5864 5861 5861 5860 5859 5859 5857 5856 5854 5852 5850 5847 5844 5841 5838 5834 5831 5827 5823 5819 5814 5810 5805 5801 5796 5792 5787 5782 5778 5773 5769 5765
5846 5848 5849 5851 5852 5853 5854 5856 5856 5858 5859 5860 5861 5862 5860 5860 5859 5858 5857 5856 5854 5852 5850 5848 5845 5842 5839 5835 5832 5828 5824 5820 5816 5811 5807 5802 5798 5793 5788 5783 5778 5773 5769 5765
5844 5847 5848 5849 5851 5851 5853 5854 5855 5857 5858 5858 5859 5862 5859 5859 5858 5858 5857 5856 5854 5852 5850 5848 5845 5843 5839 5836 5833 5829 5825 5821 5817 5812 5808 5803 5799 5794 5789 5784 5779 5774 5769 5765
5843 5846 5848 5849 5851 5851 5851 5853 5854 5855 5856 5857 5857 5860 5858 5858 5857 5857 5856 5855 5854 5852 5850 5848 5845 5843 5840 5836 5833 5829 5825 5821 5817 5813 5808 5804 5799 5794 5790 5785 5780 5775 5770 5765
5841 5843 5846 5847 5846 5847 5850 5851 5853 5854 5855 5856 5856 5857 5857 5857 5857 5856 5856 5855 5853 5852 5850 5848 5845 5842 5839 5836 5833 5829 5825 5821 5817 5813 5808 5804 5799 5794 5790 5785 5780 5775 5769 5764
5839 5842 5843 5844 5845 5847 5848 5850 5851 5853 5854 5854 5855 5855 5856 5856 5856 5855 5855 5854 5852 5851 5849 5847 5844 5841 5838 5835 5832 5828 5824 5820 5816 5812 5808 5803 5799 5794 5789 5784 5779 5774 5769 5763
5838 5840 5841 5843 5844 5846 5847 5849 5850 5851 5852 5853 5854 5854 5854 5854 5854 5854 5853 5852 5851 5849 5847 5845 5843 5840 5837 5834 5830 5827 5823 5819 5815 5811 5807 5802 5798 5793 5788 5783 5778 5773 5768 5763
5837 5839 5840 5842 5843 5844 5846 5848 5849 5849 5850 5851 5852 5853 5852 5853 5852 5852 5851 5850 5849 5847 5845 5843 5841 5838 5835 5832 5829 5825 5821 5818 5814 5810 5805 5801 5796 5792 5787 5782 5777 5772 5767 5762
5836 5837 5838 5840 5842 5843 5846 5845 5847 5847 5848 5849 5850 5850 5850 5850 5850 5849 5848 5847 5846 5844 5843 5840 5838 5835 5833 5829 5826 5823 5819 5815 5812 5808 5804 5799 5795 5791 5786 5781 5776 5771 5766 5762
5834 5836 5837 5838 5839 5840 5842 5843 5844 5845 5846 5846 5847 5847 5847 5847 5847 5846 5845 5844 5843 5841 5839 5837 5835 5832 5830 5827 5823 5820 5817 5813 5809 5805 5801 5797 5793 5789 5785 5780 5775 5770 5765 5761
5832 5833 5835 5836 5837 5838 5840 5841 5841 5843 5843 5844 5844 5844 5844 5843 5844 5844 5842 5841 5839 5838 5836 5834 5831 5829 5826 5823 5820 5817 5813 5810 5806 5802 5799 5795 5791 5787 5782 5778 5774 5769 5764 5759
5829 5830 5832 5833 5833 5835 5836 5837 5838 5840 5841 5840 5840 5840 5840 5840 5840 5839 5838 5837 5835 5834 5832 5830 5828 5825 5823 5820 5817 5813 5810 5806 5803 5799 5795 5792 5788 5784 5780 5776 5771 5767 5763 5758
5825 5827 5828 5829 5830 5833 5833 5833 5834 5835 5835 5835 5836 5836 5836 5835 5835 5834 5833 5832 5831 5829 5828 5826 5824 5821 5818 5815 5813 5809 5806 5803 5799 5795 5791 5788 5784 5780 5777 5773 5769 5764 5760 5756
5821 5823 5824 5825 5827 5828 5828 5829 5829 5830 5830 5831 5831 5831 5831 5830 5830 5829 5828 5827 5826 5825 5823 5821 5819 5816 5814 5811 5808 5805 5801 5798 5794 5791 5787 5784 5780 5776 5773 5769 5765 5761 5757 5753
5816 5817 5818 5819 5820 5822 5822 5823 5824 5824 5825 5825 5826 5826 5825 5825 5825 5824 5823 5822 5821 5819 5818 5816 5813 5811 5809 5806 5803 5799 5796 5792 5789 5786 5782 5779 5775 5772 5768 5764 5761 5757 5753 5750
5809 5811 5812 5813 5815 5815 5817 5817 5818 5819 5819 5819 5820 5820 5819 5819 5819 5818 5817 5816 5815 5814 5812 5810 5808 5805 5803 5800 5797 5794 5790 5786 5783 5779 5776 5772 5769 5766 5762 5759 5755 5752 5748 5745
5803 5804 5805 5807 5808 5808 5810 5811 5812 5812 5813 5813 5813 5813 5813 5813 5812 5812 5811 5810 5809 5807 5805 5803 5801 5799 5796 5793 5790 5787 5783 5779 5776 5772 5769 5765 5762 5759 5756 5753 5750 5746 5743 5740